When you browse on this site, cookies collect data to enhance your experience and personalize the content and advertising you see.
Visit our Privacy Policy to learn more. By continuing to use the site, you agree to this use of cookies and data.
  • In Austria
  • List of Countries
  • For 7 days
  • Water Temperature
  • Weather Map
  • News
  • Weather Widgets
  • user-avatar
    Login

    Hourly Weather La Sierra

    Today, 23 September, Monday

    Time Temperature Precipitation Wind Pressure Humidity
    00:00 +16°C° 0.1 mm 1 mps 623 mmHg 87%
    01:00 +15°C° 0 mm 1 mps 623 mmHg 86%
    02:00 +15°C° 0 mm 1 mps 623 mmHg 86%
    03:00 +15°C° 0 mm 1 mps 623 mmHg 86%
    04:00 +15°C° 0 mm 1 mps 623 mmHg 86%
    05:00 +16°C° 0 mm 1 mps 624 mmHg 85%
    06:00 +16°C° 0 mm 1 mps 624 mmHg 83%
    07:00 +19°C° 0 mm 1 mps 625 mmHg 82%
    08:00 +21°C° 0 mm 1 mps 626 mmHg 73%
    09:00 +23°C° 0 mm 1 mps 626 mmHg 65%
    10:00 +25°C° 0 mm 1 mps 627 mmHg 57%
    11:00 +26°C° 0.1 mm 1 mps 627 mmHg 54%
    12:00 +26°C° 0.1 mm 2 mps 626 mmHg 51%
    13:00 +27°C° 0.1 mm 2 mps 626 mmHg 48%
    14:00 +26°C° 0.5 mm 1 mps 625 mmHg 55%
    15:00 +25°C° 0.5 mm 1 mps 625 mmHg 63%
    16:00 +24°C° 0.5 mm 1 mps 624 mmHg 70%
    17:00 +22°C° 0.7 mm 1 mps 623 mmHg 77%
    18:00 +20°C° 0.7 mm 1 mps 623 mmHg 84%
    19:00 +18°C° 0.7 mm 1 mps 623 mmHg 90%
    20:00 +18°C° 0 mm 1 mps 623 mmHg 89%
    21:00 +16°C° 0 mm 1 mps 623 mmHg 88%
    22:00 +16°C° 0 mm 1 mps 623 mmHg 87%
    23:00 +16°C° 0 mm 1 mps 623 mmHg 86%

    Tomorrow, 24 September, Tuesday

    Time Temperature Precipitation Wind Pressure Humidity
    00:00 +16°C° 0 mm 1 mps 623 mmHg 85%
    01:00 +16°C° 0 mm 1 mps 623 mmHg 84%
    02:00 +16°C° 0 mm 1 mps 623 mmHg 84%
    03:00 +16°C° 0 mm 1 mps 623 mmHg 84%
    04:00 +16°C° 0 mm 1 mps 622 mmHg 84%
    05:00 +16°C° 0 mm 1 mps 623 mmHg 84%
    06:00 +18°C° 0 mm 1 mps 624 mmHg 83%
    07:00 +19°C° 0 mm 1 mps 624 mmHg 82%
    08:00 +20°C° 0.1 mm 1 mps 625 mmHg 76%
    09:00 +22°C° 0.1 mm 1 mps 626 mmHg 71%
    10:00 +24°C° 0.1 mm 1 mps 627 mmHg 66%
    11:00 +24°C° 0.4 mm 1 mps 626 mmHg 65%
    12:00 +25°C° 0.4 mm 1 mps 626 mmHg 64%
    13:00 +25°C° 0.4 mm 1 mps 626 mmHg 63%
    14:00 +25°C° 0.6 mm 1 mps 625 mmHg 66%
    15:00 +24°C° 0.6 mm 1 mps 624 mmHg 70%
    16:00 +23°C° 0.6 mm 1 mps 624 mmHg 73%
    17:00 +22°C° 0.5 mm 1 mps 624 mmHg 78%
    18:00 +20°C° 0.5 mm 1 mps 623 mmHg 82%
    19:00 +19°C° 0.5 mm 1 mps 623 mmHg 87%
    20:00 +18°C° 0.3 mm 1 mps 624 mmHg 87%
    21:00 +18°C° 0.3 mm 1 mps 624 mmHg 87%
    22:00 +18°C° 0.3 mm 1 mps 624 mmHg 87%
    23:00 +18°C° 0.3 mm 1 mps 624 mmHg 86%

    Day after tomorrow, 25 September, Wednesday

    Time Temperature Precipitation Wind Pressure Humidity
    00:00 +18°C° 0.3 mm 1 mps 624 mmHg 86%
    01:00 +18°C° 0.3 mm 1 mps 623 mmHg 86%
    02:00 +16°C° 0.1 mm 1 mps 623 mmHg 87%
    03:00 +16°C° 0.1 mm 1 mps 623 mmHg 87%
    04:00 +16°C° 0.1 mm 1 mps 623 mmHg 87%
    05:00 +16°C° 0 mm 1 mps 624 mmHg 86%
    06:00 +18°C° 0 mm 1 mps 624 mmHg 84%
    07:00 +17°C° 0 mm 0 mps 625 mmHg 83%
    08:00 +21°C° 0 mm 1 mps 626 mmHg 77%
    09:00 +23°C° 0 mm 1 mps 626 mmHg 70%
    10:00 +25°C° 0 mm 1 mps 627 mmHg 64%
    11:00 +25°C° 0.7 mm 1 mps 627 mmHg 65%
    12:00 +25°C° 0.7 mm 1 mps 626 mmHg 65%
    13:00 +26°C° 0.7 mm 1 mps 626 mmHg 66%
    14:00 +25°C° 1.3 mm 1 mps 625 mmHg 71%
    15:00 +24°C° 1.3 mm 1 mps 624 mmHg 76%
    16:00 +23°C° 1.3 mm 1 mps 623 mmHg 81%
    17:00 +22°C° 1.5 mm 1 mps 623 mmHg 85%
    18:00 +20°C° 1.5 mm 1 mps 623 mmHg 90%
    19:00 +19°C° 1.5 mm 1 mps 623 mmHg 94%
    20:00 +19°C° 1 mm 1 mps 624 mmHg 94%
    21:00 +18°C° 1 mm 1 mps 624 mmHg 93%
    22:00 +18°C° 1 mm 1 mps 624 mmHg 93%
    23:00 +18°C° 0.1 mm 1 mps 624 mmHg 92%

    26 September, Thursday

    Time Temperature Precipitation Wind Pressure Humidity
    00:00 +18°C° 0.1 mm 1 mps 624 mmHg 92%
    01:00 +16°C° 0.1 mm 1 mps 623 mmHg 92%
    02:00 +16°C° 0 mm 1 mps 623 mmHg 91%
    03:00 +16°C° 0 mm 1 mps 623 mmHg 91%
    04:00 +16°C° 0 mm 1 mps 623 mmHg 91%
    05:00 +18°C° 0 mm 1 mps 623 mmHg 89%
    06:00 +18°C° 0 mm 1 mps 624 mmHg 88%
    07:00 +18°C° 0 mm 1 mps 624 mmHg 86%
    08:00 +20°C° 0 mm 1 mps 625 mmHg 79%
    09:00 +22°C° 0 mm 1 mps 626 mmHg 72%
    10:00 +24°C° 0 mm 1 mps 627 mmHg 64%
    11:00 +24°C° 0.4 mm 1 mps 626 mmHg 64%
    12:00 +25°C° 0.4 mm 1 mps 626 mmHg 64%
    13:00 +25°C° 0.4 mm 1 mps 625 mmHg 64%
    14:00 +24°C° 0.5 mm 1 mps 625 mmHg 66%
    15:00 +24°C° 0.5 mm 1 mps 624 mmHg 67%
    16:00 +24°C° 0.5 mm 1 mps 624 mmHg 69%
    17:00 +22°C° 0.9 mm 1 mps 623 mmHg 76%
    18:00 +20°C° 0.9 mm 1 mps 623 mmHg 83%
    19:00 +18°C° 0.9 mm 1 mps 623 mmHg 91%
    20:00 +18°C° 0.3 mm 1 mps 623 mmHg 90%
    21:00 +18°C° 0.3 mm 1 mps 623 mmHg 90%
    22:00 +16°C° 0.3 mm 1 mps 623 mmHg 90%
    23:00 +16°C° 0 mm 1 mps 623 mmHg 89%

    27 September, Friday

    Time Temperature Precipitation Wind Pressure Humidity
    00:00 +16°C° 0 mm 1 mps 623 mmHg 89%
    01:00 +15°C° 0 mm 1 mps 623 mmHg 89%
    02:00 +15°C° 0 mm 1 mps 622 mmHg 88%
    03:00 +15°C° 0 mm 1 mps 622 mmHg 88%
    04:00 +15°C° 0 mm 1 mps 622 mmHg 87%
    05:00 +16°C° 0 mm 1 mps 623 mmHg 85%
    06:00 +16°C° 0 mm 1 mps 623 mmHg 84%
    07:00 +18°C° 0 mm 1 mps 624 mmHg 82%
    08:00 +20°C° 0 mm 1 mps 625 mmHg 76%
    09:00 +22°C° 0 mm 1 mps 626 mmHg 69%
    10:00 +24°C° 0 mm 1 mps 626 mmHg 62%
    11:00 +25°C° 0.3 mm 1 mps 626 mmHg 61%
    12:00 +25°C° 0.3 mm 1 mps 626 mmHg 60%
    13:00 +26°C° 0.3 mm 1 mps 625 mmHg 59%
    14:00 +25°C° 0.6 mm 1 mps 625 mmHg 63%
    15:00 +25°C° 0.6 mm 1 mps 624 mmHg 66%
    16:00 +24°C° 0.6 mm 1 mps 623 mmHg 70%
    17:00 +22°C° 0.8 mm 1 mps 623 mmHg 77%
    18:00 +20°C° 0.8 mm 1 mps 622 mmHg 84%
    19:00 +18°C° 0.8 mm 1 mps 622 mmHg 91%
    20:00 +18°C° 0.3 mm 1 mps 622 mmHg 91%
    21:00 +18°C° 0.3 mm 1 mps 623 mmHg 91%
    22:00 +16°C° 0.3 mm 1 mps 623 mmHg 91%
    23:00 +16°C° 0.2 mm 1 mps 623 mmHg 90%

    28 September, Saturday

    Time Temperature Precipitation Wind Pressure Humidity
    00:00 +16°C° 0.2 mm 1 mps 623 mmHg 90%
    01:00 +16°C° 0.2 mm 1 mps 622 mmHg 90%
    02:00 +15°C° 0.3 mm 1 mps 622 mmHg 90%
    03:00 +15°C° 0.3 mm 1 mps 622 mmHg 90%
    04:00 +15°C° 0.3 mm 1 mps 622 mmHg 90%
    05:00 +16°C° 0 mm 1 mps 622 mmHg 88%
    06:00 +16°C° 0 mm 1 mps 623 mmHg 86%
    07:00 +16°C° 0 mm 0 mps 623 mmHg 84%
    08:00 +20°C° 0 mm 1 mps 624 mmHg 78%
    09:00 +22°C° 0 mm 1 mps 625 mmHg 72%
    10:00 +24°C° 0 mm 1 mps 626 mmHg 66%
    11:00 +25°C° 0.5 mm 1 mps 625 mmHg 66%
    12:00 +25°C° 0.5 mm 1 mps 625 mmHg 65%
    13:00 +26°C° 0.5 mm 1 mps 624 mmHg 65%
    14:00 +24°C° 1.7 mm 1 mps 624 mmHg 72%
    15:00 +23°C° 1.7 mm 1 mps 623 mmHg 79%
    16:00 +22°C° 1.7 mm 1 mps 622 mmHg 85%
    17:00 +21°C° 1.1 mm 1 mps 622 mmHg 88%
    18:00 +20°C° 1.1 mm 1 mps 622 mmHg 91%
    19:00 +18°C° 1.1 mm 1 mps 622 mmHg 94%
    20:00 +18°C° 0.5 mm 1 mps 622 mmHg 94%
    21:00 +16°C° 0.5 mm 0 mps 623 mmHg 93%
    22:00 +16°C° 0.5 mm 0 mps 623 mmHg 93%
    23:00 +16°C° 0 mm 0 mps 623 mmHg 93%
    Show more